Weather History for El Centro, CA

Change the Weather History Date:

Thursday, March 14, 2013

  Actual Average Record
Temperature  
Mean Temperature 75 °F -  
Max Temperature 96 °F 77 °F 96 °F (2013)
Min Temperature 55 °F 53 °F 41 °F (2006)
Cooling Degree Days 10    
Growing Degree Days 25 (Base 50)    
Moisture  
Dew Point 32 °F    
Average Humidity 23    
Maximum Humidity 37    
Minimum Humidity 10    
Precipitation  
Precipitation 0.00 in - - ()
Sea Level Pressure  
Sea Level Pressure 30.03 in    
Wind  
Wind Speed 6 mph (WSW)    
Max Wind Speed 9 mph    
Max Gust Speed -    
Visibility 10 miles    
Events      
Averages and records for this station are not official NWS values.
T = Trace of Precipitation, MM = Missing Value Source: NWS Daily Summary

Daily Weather History Graph

Daily Weather History Graph

Search for Another Location

Airport:

Trip Planner

Search our weather history database for the weather conditions in past years. The results will help you decide how hot, cold, wet, or windy it might be!

Date:

Astronomy

Mar. 14, 2013 Rise Set
Actual Time 6:53 AM PDT 6:50 PM PDT
Civil Twilight 6:29 AM PDT 7:14 PM PDT
Nautical Twilight 6:00 AM PDT 7:43 PM PDT
Astronomical Twilight 5:31 AM PDT 8:12 PM PDT
Moon 8:21 AM PDT (3/14) 9:57 PM PDT (3/14)
Length of Visible Light 12h 45m
Length of Day
11h 56m
Waxing Crescent, 9% of the Moon is Illuminated
Mar 14
Waxing Crescent
Mar 19
First Quarter
Mar 27
Full
Apr 2
Last Quarter
Apr 10
New

Hourly Weather History & Observations

Time (PDT) Temp. Dew Point Humidity Pressure Visibility Wind Dir Wind Speed Gust Speed Precip Events Conditions
12:56 AM 63.0 °F 27.0 °F 26% 30.05 in 10.0 mi WSW 9.2 mph - N/A   Clear
1:56 AM 63.0 °F 32.0 °F 31% 30.04 in 10.0 mi WSW 9.2 mph - N/A   Clear
2:56 AM 62.1 °F 27.0 °F 26% 30.04 in 10.0 mi West 8.1 mph - N/A   Clear
3:56 AM 57.0 °F 27.0 °F 32% 30.04 in 10.0 mi WNW 5.8 mph - N/A   Clear
4:56 AM 57.9 °F 28.0 °F 32% 30.04 in 10.0 mi West 6.9 mph - N/A   Clear
5:56 AM 55.9 °F 30.0 °F 37% 30.06 in 10.0 mi West 5.8 mph - N/A   Clear
6:56 AM 57.0 °F 30.9 °F 37% 30.07 in 10.0 mi West 6.9 mph - N/A   Clear
7:56 AM 61.0 °F 30.9 °F 32% 30.09 in 10.0 mi West 8.1 mph - N/A   Clear
8:56 AM 71.1 °F 33.1 °F 25% 30.10 in 10.0 mi West 4.6 mph - N/A   Clear
9:56 AM 79.0 °F 34.0 °F 20% 30.11 in 10.0 mi West 4.6 mph - N/A   Clear
10:56 AM 86.0 °F 32.0 °F 14% 30.10 in 10.0 mi Calm Calm - N/A   Clear
11:56 AM 90.0 °F 28.9 °F 11% 30.08 in 10.0 mi NE 6.9 mph - N/A   Clear
12:56 PM 91.9 °F 30.9 °F 11% 30.06 in 10.0 mi Variable 3.5 mph - N/A   Clear
1:56 PM 93.0 °F 30.0 °F 11% 30.03 in 10.0 mi Calm Calm - N/A   Clear
2:56 PM 93.9 °F 30.0 °F 10% 30.01 in 10.0 mi Calm Calm - N/A   Clear
3:56 PM 95.0 °F 33.1 °F 11% 29.99 in 10.0 mi ENE 5.8 mph - N/A   Clear
4:56 PM 93.9 °F 35.1 °F 13% 29.98 in 10.0 mi SE 5.8 mph - N/A   Clear
5:56 PM 93.0 °F 34.0 °F 12% 29.97 in 10.0 mi SSW 3.5 mph - N/A   Clear
6:56 PM 88.0 °F 34.0 °F 15% 29.96 in 10.0 mi SW 3.5 mph - N/A   Clear
7:56 PM 81.0 °F 37.0 °F 21% 29.96 in 10.0 mi SSW 3.5 mph - N/A   Clear
8:56 PM 73.9 °F 35.1 °F 24% 29.97 in 10.0 mi Calm Calm - N/A   Clear
9:56 PM 71.1 °F 41.0 °F 34% 29.99 in 10.0 mi SSW 4.6 mph - N/A   Clear
10:56 PM 68.0 °F 37.0 °F 32% 29.99 in 10.0 mi WSW 5.8 mph - N/A   Clear
11:56 PM 68.0 °F 34.0 °F 28% 29.99 in 10.0 mi WSW 9.2 mph - N/A   Clear